Weather History for Kendall, FL

Change the Weather History Date:

Tuesday, November 5, 2013

  Actual Average Record
Temperature  
Mean Temperature 78 °F -  
Max Temperature 82 °F 81 °F 87 °F (1989)
Min Temperature 73 °F 65 °F 55 °F (2010)
Cooling Degree Days 12    
Growing Degree Days 28 (Base 50)    
Moisture  
Dew Point 68 °F    
Average Humidity 70    
Maximum Humidity 79    
Minimum Humidity 58    
Precipitation  
Precipitation 0.01 in - - ()
Sea Level Pressure  
Sea Level Pressure 30.03 in    
Wind  
Wind Speed 18 mph (ENE)    
Max Wind Speed 24 mph    
Max Gust Speed 34 mph    
Visibility 10 miles    
Events Rain    
Averages and records for this station are not official NWS values.
T = Trace of Precipitation, MM = Missing Value Source: NWS Daily Summary

Daily Weather History Graph

Daily Weather History Graph

Search for Another Location

Airport:

Trip Planner

Search our weather history database for the weather conditions in past years. The results will help you decide how hot, cold, wet, or windy it might be!

Date:

Astronomy

Nov. 05, 2013 Rise Set
Actual Time 6:32 AM EST 5:37 PM EST
Civil Twilight 6:08 AM EST 6:01 PM EST
Nautical Twilight 5:41 AM EST 6:28 PM EST
Astronomical Twilight 5:14 AM EST 6:55 PM EST
Moon 8:38 AM EST (11/5) 7:45 PM EST (11/5)
Length of Visible Light 11h 52m
Length of Day
11h 05m
Waxing Crescent, 6% of the Moon is Illuminated
Nov 5
Waxing Crescent
Nov 10
First Quarter
Nov 17
Full
Nov 25
Last Quarter
Dec 2
New

Hourly Weather History & Observations

Time (EST) Temp. Heat Index Dew Point Humidity Pressure Visibility Wind Dir Wind Speed Gust Speed Precip Events Conditions
12:53 AM 77.0 °F - 66.9 °F 71% 30.03 in 10.0 mi ENE 19.6 mph 25.3 mph N/A   Overcast
1:53 AM 77.0 °F - 66.9 °F 71% 30.01 in 10.0 mi ENE 15.0 mph 21.9 mph N/A   Overcast
2:53 AM 77.0 °F - 66.9 °F 71% 30.01 in 10.0 mi ENE 15.0 mph 24.2 mph N/A   Overcast
3:53 AM 77.0 °F - 66.9 °F 71% 30.00 in 10.0 mi ENE 16.1 mph 27.6 mph N/A   Overcast
4:53 AM 73.9 °F - 66.9 °F 79% 30.01 in 8.0 mi East 21.9 mph 34.5 mph 0.00 in Rain Light Rain
5:53 AM 77.0 °F - 66.0 °F 69% 30.01 in 10.0 mi ENE 15.0 mph - 0.00 in   Overcast
6:53 AM 78.1 °F - 66.0 °F 66% 30.02 in 10.0 mi ENE 17.3 mph 24.2 mph N/A   Overcast
7:53 AM 79.0 °F - 66.9 °F 66% 30.05 in 10.0 mi ENE 17.3 mph - N/A   Scattered Clouds
8:53 AM 80.1 °F 82.7 °F 68.0 °F 67% 30.06 in 10.0 mi ENE 16.1 mph 27.6 mph N/A   Overcast
9:53 AM 82.0 °F 84.5 °F 66.9 °F 60% 30.07 in 10.0 mi ENE 23.0 mph 27.6 mph N/A   Overcast
10:53 AM 82.9 °F 85.4 °F 66.9 °F 58% 30.06 in 10.0 mi ENE 24.2 mph 31.1 mph N/A   Overcast
11:53 AM 82.0 °F 84.9 °F 68.0 °F 62% 30.04 in 10.0 mi East 21.9 mph 29.9 mph N/A   Overcast
12:53 PM 82.0 °F 85.5 °F 69.1 °F 65% 30.03 in 10.0 mi East 23.0 mph 29.9 mph N/A   Overcast
1:53 PM 82.0 °F 84.5 °F 66.9 °F 60% 30.01 in 10.0 mi ENE 24.2 mph 34.5 mph N/A   Overcast
2:53 PM 82.0 °F 84.9 °F 68.0 °F 62% 30.01 in 10.0 mi ENE 20.7 mph 26.5 mph N/A   Overcast
3:53 PM 82.0 °F 85.5 °F 69.1 °F 65% 30.00 in 10.0 mi East 16.1 mph 26.5 mph N/A   Overcast
4:53 PM 79.0 °F - 71.1 °F 77% 30.01 in 10.0 mi East 13.8 mph - N/A   Overcast
5:53 PM 79.0 °F - 71.1 °F 77% 30.02 in 10.0 mi NE 17.3 mph 21.9 mph N/A   Overcast
6:08 PM 78.8 °F - 69.8 °F 74% 30.02 in 10.0 mi NE 11.5 mph - N/A   Overcast
6:53 PM 79.0 °F - 69.1 °F 72% 30.02 in 10.0 mi East 9.2 mph - N/A   Overcast
7:53 PM 80.1 °F 83.2 °F 70.0 °F 71% 30.03 in 10.0 mi East 12.7 mph - N/A   Overcast
8:53 PM 79.0 °F - 71.1 °F 77% 30.04 in 10.0 mi East 15.0 mph 21.9 mph 0.00 in   Overcast
9:53 PM 79.0 °F - 70.0 °F 74% 30.05 in 10.0 mi East 20.7 mph 26.5 mph N/A   Overcast
10:53 PM 78.1 °F - 71.1 °F 79% 30.04 in 10.0 mi East 15.0 mph - 0.01 in   Overcast
11:53 PM 78.1 °F - 70.0 °F 76% 30.02 in 10.0 mi East 15.0 mph - N/A   Overcast